Windsor Locks, CT

3:50 PM EDT on June 25, 2017 (GMT -0400)
Bradley International

Weather History for KBDL - May, 2013

Change the Weather History Date:

Thursday, May 23, 2013

  Actual Average Record
Temperature  
Mean Temperature 69 °F 61 °F  
Max Temperature 73 °F 73 °F 96 °F (1964)
Min Temperature 65 °F 50 °F 37 °F (1976)
Degree Days  
Heating Degree Days 0 5  
Month to date heating degree days 137 171  
Since 1 July heating degree days 5630 5924  
Cooling Degree Days 4 1  
Month to date cooling degree days 21 16  
Year to date cooling degree days 21 22  
Growing Degree Days 18 (Base 50)    
Moisture  
Dew Point 65 °F    
Average Humidity 92    
Maximum Humidity 100    
Minimum Humidity 84    
Precipitation  
Precipitation 1.61 in 0.16 in 2.07 in (1931)
Month to date precipitation 4.29 3.06  
Year to date precipitation 14.07 16.52  
Snow  
Snow 0.00 in 0.00 in 0.00 in (2002)
Month to date snowfall 0.0 0.0  
Since 1 July snowfall 56.9 40.5  
Snow Depth 0.00 in    
Sea Level Pressure  
Sea Level Pressure 29.85 in    
Wind  
Wind Speed 10 mph (South)    
Max Wind Speed 17 mph    
Max Gust Speed 23 mph    
Visibility 5 miles    
Events Fog , Rain , Thunderstorm    
T = Trace of Precipitation, MM = Missing Value Source: NWS Daily Summary

Daily Weather History Graph

Daily Weather History Graph

Search for Another Location

Airport or City:

Trip Planner

Search our weather history database for the weather conditions in past years. The results will help you decide how hot, cold, wet, or windy it might be!

Date:

Astronomy

May. 23, 2013 Rise Set
Actual Time 5:23 AM EDT 8:12 PM EDT
Civil Twilight 4:50 AM EDT 8:45 PM EDT
Nautical Twilight 4:09 AM EDT 9:26 PM EDT
Astronomical Twilight 3:21 AM EDT 10:14 PM EDT
Moon 6:40 PM EDT (5/23) 4:07 AM EDT (5/23)
Length of Visible Light 15h 54m
Length of Day
14h 49m
Waxing Gibbous, 97% of the Moon is Illuminated
May 23
Waxing Gibbous
May 25
Full
May 31
Last Quarter
Jun 8
New
Jun 16
First Quarter

Hourly Weather History & Observations

Time (EDT) Temp. Dew Point Humidity Pressure Visibility Wind Dir Wind Speed Gust Speed Precip Events Conditions
12:51 AM 68.0 °F 64.9 °F 90% 29.88 in 5.0 mi South 9.2 mph - N/A   Overcast
1:51 AM 68.0 °F 64.0 °F 87% 29.86 in 5.0 mi SSE 10.4 mph - N/A   Overcast
2:51 AM 66.9 °F 64.0 °F 90% 29.84 in 5.0 mi South 9.2 mph - N/A   Overcast
3:51 AM 66.9 °F 64.0 °F 90% 29.83 in 6.0 mi South 8.1 mph - N/A   Overcast
4:51 AM 66.0 °F 64.0 °F 93% 29.84 in 5.0 mi South 9.2 mph - N/A   Overcast
5:51 AM 66.0 °F 64.0 °F 93% 29.86 in 5.0 mi SSE 9.2 mph - N/A   Overcast
6:51 AM 66.0 °F 64.0 °F 93% 29.87 in 4.0 mi South 11.5 mph - 0.00 in Rain Light Rain
7:51 AM 66.0 °F 64.0 °F 93% 29.88 in 4.0 mi South 8.1 mph - 0.00 in   Overcast
8:51 AM 68.0 °F 64.9 °F 90% 29.88 in 5.0 mi South 6.9 mph - N/A   Overcast
9:51 AM 70.0 °F 66.0 °F 87% 29.87 in 6.0 mi South 9.2 mph - N/A   Overcast
10:12 AM 69.8 °F 64.4 °F 83% 29.88 in 7.0 mi SSW 11.5 mph - N/A   Overcast
10:43 AM 73.4 °F 66.2 °F 78% 29.88 in 8.0 mi South 9.2 mph - N/A   Overcast
10:51 AM 72.0 °F 66.0 °F 81% 29.88 in 8.0 mi SSE 10.4 mph - N/A   Overcast
11:16 AM 69.8 °F 66.2 °F 88% 29.88 in 6.0 mi South 12.7 mph - 0.00 in   Overcast
11:38 AM 69.8 °F 66.2 °F 88% 29.88 in 5.0 mi South 10.4 mph - 0.01 in Rain Light Rain
11:46 AM 71.6 °F 66.2 °F 83% 29.87 in 7.0 mi SSE 10.4 mph - 0.01 in   Overcast
11:51 AM 71.1 °F 66.9 °F 87% 29.87 in 6.0 mi South 12.7 mph - 0.01 in   Overcast
12:03 PM 73.4 °F 66.2 °F 78% 29.87 in 8.0 mi South 9.2 mph - N/A   Overcast
12:36 PM 71.6 °F 66.2 °F 83% 29.87 in 10.0 mi South 15.0 mph 21.9 mph N/A   Overcast
12:51 PM 71.1 °F 66.0 °F 84% 29.86 in 6.0 mi South 16.1 mph - N/A   Haze
1:51 PM 71.1 °F 66.0 °F 84% 29.86 in 6.0 mi South 11.5 mph 19.6 mph N/A   Haze
2:13 PM 71.6 °F 66.2 °F 83% 29.86 in 6.0 mi South 10.4 mph - 0.00 in Rain Light Rain
2:51 PM 70.0 °F 66.9 °F 90% 29.85 in 4.0 mi South 6.9 mph - 0.01 in Rain Light Rain
3:02 PM 69.8 °F 66.2 °F 88% 29.85 in 4.0 mi South 5.8 mph - 0.01 in Rain Light Rain
3:18 PM 71.6 °F 66.2 °F 83% 29.84 in 6.0 mi South 5.8 mph - 0.01 in Rain , Thunderstorm Light Thunderstorms and Rain
3:27 PM 69.8 °F 68.0 °F 94% 29.84 in 2.5 mi Calm Calm - 0.05 in Rain , Thunderstorm Heavy Thunderstorms and Rain
3:35 PM 69.8 °F 66.2 °F 88% 29.84 in 3.0 mi West 11.5 mph - 0.07 in Rain , Thunderstorm Thunderstorms and Rain
3:37 PM 69.8 °F 66.2 °F 88% 29.84 in 0.5 mi West 11.5 mph - 0.08 in Fog , Rain , Thunderstorm Thunderstorms and Rain
3:44 PM 69.8 °F 66.2 °F 88% 29.84 in 1.0 mi SW 13.8 mph - 0.41 in Rain , Thunderstorm Heavy Thunderstorms and Rain
3:51 PM 68.0 °F 66.0 °F 93% 29.83 in 2.0 mi SW 11.5 mph - 0.54 in Rain , Thunderstorm Heavy Thunderstorms and Rain
3:53 PM 68.0 °F 66.2 °F 94% 29.84 in 3.0 mi SW 10.4 mph - 0.03 in Rain Rain
4:04 PM 68.0 °F 64.4 °F 88% 29.84 in 5.0 mi SW 8.1 mph - 0.05 in Rain Rain
4:13 PM 68.0 °F 66.2 °F 94% 29.84 in 6.0 mi SW 5.8 mph - 0.07 in Rain Light Rain
4:42 PM 66.2 °F 64.4 °F 94% 29.83 in 3.0 mi SSW 5.8 mph - 0.14 in Rain , Thunderstorm Heavy Thunderstorms and Rain
4:51 PM 66.9 °F 64.9 °F 93% 29.83 in 3.0 mi South 4.6 mph - 0.17 in Rain , Thunderstorm Thunderstorms and Rain
4:53 PM 66.2 °F 64.4 °F 94% 29.83 in 5.0 mi South 4.6 mph - 0.00 in Rain , Thunderstorm Thunderstorms and Rain
5:11 PM 66.2 °F 66.2 °F 100% 29.85 in 2.0 mi South 13.8 mph 21.9 mph 0.09 in Rain , Thunderstorm Heavy Thunderstorms and Rain
5:15 PM 68.0 °F 66.2 °F 94% 29.84 in 1.8 mi South 16.1 mph 23.0 mph 0.24 in Rain , Thunderstorm Heavy Thunderstorms and Rain
5:27 PM 66.2 °F 66.2 °F 100% 29.84 in 2.0 mi South 10.4 mph - 0.34 in Rain , Thunderstorm Heavy Thunderstorms and Rain
5:41 PM 66.2 °F 64.4 °F 94% 29.84 in 2.0 mi South 10.4 mph - 0.41 in Rain Rain
5:51 PM 66.0 °F 64.9 °F 96% 29.84 in 2.0 mi South 8.1 mph - 0.48 in Rain Heavy Rain
6:15 PM 66.2 °F 64.4 °F 94% 29.84 in 1.8 mi South 10.4 mph - 0.17 in Rain Heavy Rain
6:23 PM 66.2 °F 64.4 °F 94% 29.84 in 3.0 mi South 9.2 mph - 0.19 in Rain Heavy Rain
6:41 PM 66.2 °F 66.2 °F 100% 29.83 in 3.0 mi South 9.2 mph - 0.24 in Rain Rain
6:51 PM 66.9 °F 66.0 °F 97% 29.84 in 5.0 mi South 9.2 mph - 0.26 in Rain Light Rain
7:06 PM 68.0 °F 66.2 °F 94% 29.84 in 7.0 mi South 8.1 mph - 0.01 in Rain Light Rain
7:51 PM 66.9 °F 64.9 °F 93% 29.83 in 8.0 mi South 6.9 mph - 0.01 in Rain Light Rain
8:51 PM 66.9 °F 64.0 °F 90% 29.83 in 5.0 mi South 12.7 mph - 0.04 in Rain Rain
9:21 PM 66.2 °F 64.4 °F 94% 29.81 in 7.0 mi South 8.1 mph - 0.02 in Rain Light Rain
9:41 PM 66.2 °F 64.4 °F 94% 29.81 in 8.0 mi South 12.7 mph - 0.03 in Rain Light Rain
9:51 PM 66.0 °F 64.0 °F 93% 29.81 in 9.0 mi South 13.8 mph - 0.04 in Rain Light Rain
10:51 PM 64.9 °F 64.0 °F 97% 29.79 in 6.0 mi South 12.7 mph - 0.03 in Rain Light Rain
11:51 PM 64.9 °F 63.0 °F 93% 29.76 in 8.0 mi South 10.4 mph - 0.00 in Rain Light Rain